This demonstration page uses our WeatherBlox Daily Observations layout. Learn more.

Left ArrowRight Arrow

Hourly Observations for October 7, 2022

Temp ( °F °C ) Dew Point ( °F °C ) Humidity (%) Winds ( mph kmh ) Pressure ( in mb ) Visibility ( mi km ) Precip ( " mm )
12:52 am 00:52 Mostly Cloudy 48 8.9 33 0.6 56 56 N 9 15 30.43 1031 10 16 0.00 0.00
1:52 am 01:52 Cloudy 48 8.9 32 0 54 54 N 9 15 30.44 1031 10 16 0.00 0.00
2:52 am 02:52 Mostly Cloudy 47 8.3 32 0 56 56 N 8 13 30.46 1032 10 16 0.00 0.00
3:52 am 03:52 Partly Cloudy 45 7.2 32 0 60 60 N 7 11 30.47 1032 10 16 0.00 0.00
4:52 am 04:52 Mostly Clear 41 5 32 0 70 70 N 6 9 30.49 1033 10 16 0.00 0.00
5:52 am 05:52 Mostly Clear 39 3.9 33 0.6 79 79 N 7 11 30.52 1034 10 16 0.00 0.00
6:52 am 06:52 Partly Cloudy 38 3.3 32 0 79 79 N 9 15 30.54 1034 10 16 0.00 0.00
7:52 am 07:52 Mostly Cloudy 38 3.3 33 0.6 82 82 N 8 13 30.55 1035 10 16 0.00 0.00
8:52 am 08:52 Mostly Cloudy 41 5 33 0.6 73 73 N 10 17 30.58 1036 10 16 0.00 0.00
9:52 am 09:52 Partly Cloudy 45 7.2 34 1.1 65 65 N 12 19 30.58 1036 10 16 0.00 0.00
10:52 am 10:52 Partly Cloudy 49 9.4 35 1.7 59 59 N 10 17 30.57 1035 10 16 0.00 0.00
11:52 am 11:52 Mostly Cloudy 50 10 35 1.7 56 56 N 8 13 30.56 1035 10 16 0.00 0.00
12:52 pm 12:52 Mostly Cloudy 52 11.1 33 0.6 48 48 N 12 19 30.55 1034 10 16 0.00 0.00
1:52 pm 13:52 Partly Cloudy 54 12.2 32 0 43 43 VRB 3 6 30.53 1034 10 16 0.00 0.00
2:52 pm 14:52 Partly Cloudy 55 12.8 31 -0.6 40 40 NW 8 13 30.50 1033 10 16 0.00 0.00
3:52 pm 15:52 Mostly Sunny 56 13.3 30 -1.1 37 37 WNW 12 19 30.48 1032 10 16 0.00 0.00
4:52 pm 16:52 Mostly Sunny 57 13.9 30 -1.1 35 35 NNW 12 19 30.48 1032 10 16 0.00 0.00
5:52 pm 17:52 Sunny 55 12.8 28 -2.2 35 35 NNW 8 13 30.48 1032 10 16 0.00 0.00
6:52 pm 18:52 Sunny 48 8.9 28 -2.2 46 46 NW 6 9 30.48 1032 10 16 0.00 0.00
7:52 pm 19:52 Clear 48 8.9 31 -0.6 51 51 N 3 6 30.50 1033 10 16 0.00 0.00
8:52 pm 20:52 Clear 43 6.1 34 1.1 70 70 NNW 3 6 30.51 1033 10 16 0.00 0.00
9:52 pm 21:52 Clear 37 2.8 32 0 82 82 NW 6 9 30.52 1034 10 16 0.00 0.00
10:52 pm 22:52 Clear 36 2.2 32 0 85 85 Calm 30.53 1034 10 16 0.00 0.00
11:52 pm 23:52 Clear 36 2.2 32 0 85 85 Calm 30.53 1034 10 16 0.00 0.00

Powered by AerisWeather